LiveATC.Net - Listen to live air traffic control over the Internet!


ICAO: CYQR  IATA: YQR   Airport: Regina International Airport
City: Regina   State/Province: Saskatchewan
Country: Canada   Continent: North America
CYQR METAR Weather: CYQR 202100Z 25004KT 15SM SKC 09/05 A3014 RMK SLP232
CYQR Flight Activity (FlightAware)

CYQR Tower
Feed Status: DOWN
Last heard on: 2019-03-19 18:42:09 (1 days 3 hours 37 minutes ago)
CYQR Tower Audio Archives
FacilityFrequency
Regina Tower118.600

NOTICE

Unauthorized use prohibited. See LiveATC.net Terms of Service


Find LiveATC Audio Streams


Airport/ARTCC Code

Frequency Search
(e.g., 124.400, 128.75)
Site-wide search
 


Browse LiveATC Feeds
Top 50 LiveATC Feeds
LiveATC Feed Map
Bad Weather Areas

LiveATC FAQ
Offer LiveATC feed
Contact LiveATC.net
Press Inquiries

LiveATC on iPhone
LiveATC on Android

Windows Phone
Windows 8/10

LiveATC Mobile
(Mobile browser)

ATC Audio Archives
Interesting Recordings

LiveATC Forums


Home Page
About LiveATC.net
Make a Donation
Terms of Use
Privacy Policy

Canadian Air Freqs

AIRMETs/SIGMETs

FAA Airport Status
Nat'l Airspace Status
Arrival Demand Charts


Server Software By:
Icecast.org
Liquidsoap